Flag for U.S.A. Weather past 2 weeks in Duluth, Minnesota, U.S.A.

66 °F


Feels Like: 66 °F
Forecast: 41 / 69 °F
Wind: 21 mph from Southwest

Location: Sky Harbor Airport

Current Time: Oct 10, 2015 at 1:56:02 PM

Latest Report: Oct 10, 2015 at 1:33 PM

Visibility: 10 mi

Pressure: 29.73 "Hg

Humidity: 52%

Dew point: 48 °F

Location of DuluthLocation

Historic Weather in Duluth — Graph


Duluth temperature yesterday

Maximum temperature yesterday: 57 °F (at 2:34 PM)
Minimum temperature yesterday: 45 °F (at 5:34 AM)
Average temperature yesterday: 50 °F

Past Weeks' High & Low Weather Summary

High79 °F (Sep 27, 3:13 PM)100% (Sep 25, 3:34 PM)30.63 "Hg (Sep 25, 3:34 PM)
Low37 °F (Sep 30, 6:34 AM)27% (Sep 29, 4:14 PM)29.76 "Hg (Oct 10, 12:54 PM)
Average53 °F78%30.22 "Hg
* Reported Sep 25 12:14 PM — Oct 10 12:54 PM, Duluth, Weather by CustomWeather, © 2015

Note: Actual official high and low records may vary slightly from our data, if they occured in-between our weather recording intervals... More about our weather records


Duluth weather history for previous 24 hours

Time TempWeatherWind HumidityBarometerVisibility
12:54 PM
Sat, Oct 10
64 °FSunny.24 mph56%29.76 "Hg10 mi
12:33 PM63 °FSunny.23 mph59%29.77 "Hg10 mi
12:14 PM63 °FSunny.18 mph56%29.78 "Hg10 mi
11:54 AM61 °FSunny.17 mph59%29.79 "Hg10 mi
11:33 AM61 °FSunny.20 mph59%29.81 "Hg10 mi
11:14 AM59 °FSunny.17 mph63%29.82 "Hg10 mi
10:53 AM59 °FSunny.17 mph63%29.84 "Hg10 mi
10:33 AM57 °FSunny.14 mph67%29.86 "Hg10 mi
10:14 AM55 °FSunny.17 mph67%29.86 "Hg10 mi
9:53 AM54 °FSunny.16 mph72%29.87 "Hg10 mi
9:34 AM52 °FSunny.13 mph77%29.89 "Hg10 mi
9:13 AM52 °FSunny.10 mph77%29.91 "Hg10 mi
8:54 AM48 °FSunny.12 mph82%29.91 "Hg10 mi
8:33 AM48 °FSunny.10 mph82%29.92 "Hg10 mi
8:13 AM46 °FClear.10 mph87%29.94 "Hg10 mi
7:54 AM46 °FClear.7 mph87%29.96 "Hg10 mi
7:33 AM45 °FClear.8 mphN/A29.96 "Hg10 mi
7:14 AM45 °FClear.8 mph87%29.97 "Hg10 mi
6:54 AM45 °FClear.6 mph87%29.97 "Hg10 mi
6:33 AM45 °FClear.5 mph87%29.98 "Hg10 mi
6:14 AM45 °FClear.8 mph87%29.99 "Hg10 mi
5:54 AM43 °FClear.7 mph87%30.00 "Hg10 mi
5:33 AM43 °FClear.6 mph87%30.01 "Hg10 mi
5:14 AM45 °FClear.8 mph87%30.01 "Hg10 mi
4:54 AM43 °FClear.7 mph87%30.03 "Hg10 mi
4:33 AM43 °FClear.8 mph87%30.04 "Hg10 mi
4:14 AM43 °FClear.7 mph87%30.05 "Hg10 mi
3:54 AM43 °FClear.7 mph87%30.05 "Hg10 mi
3:33 AM43 °FClear.7 mph87%30.07 "Hg10 mi
3:14 AM45 °FClear.7 mph87%30.08 "Hg10 mi
2:53 AM45 °FClear.6 mph87%30.08 "Hg10 mi
2:34 AM45 °FClear.6 mph87%30.09 "Hg10 mi
2:13 AM45 °FClear.6 mph87%30.10 "Hg10 mi
1:54 AM45 °FClear.6 mph87%30.10 "Hg10 mi
1:34 AM45 °FClear.6 mph87%30.10 "Hg10 mi
1:13 AM45 °FClear.5 mph81%30.11 "Hg10 mi
12:54 AM45 °FClear.5 mph87%30.11 "Hg10 mi
12:34 AM45 °FClear.7 mph87%30.12 "Hg10 mi
12:13 AM45 °FClear.7 mph87%30.13 "Hg10 mi
11:54 PM
Fri, Oct 9
45 °FClear.6 mph87%30.15 "Hg10 mi
11:34 PM46 °FClear.7 mph82%30.16 "Hg10 mi
11:13 PM46 °FClear.6 mph87%30.16 "Hg10 mi
10:54 PM46 °FClear.6 mph87%30.16 "Hg10 mi
10:34 PM46 °FClear.7 mph87%30.17 "Hg10 mi
10:13 PM46 °FClear.7 mph87%30.17 "Hg10 mi
9:54 PM48 °FClear.7 mph82%30.18 "Hg10 mi
9:34 PM48 °FClear.7 mph82%30.18 "Hg10 mi
9:13 PM48 °FClear.8 mph82%30.18 "Hg10 mi
8:54 PM48 °FClear.8 mph82%30.18 "Hg10 mi
8:34 PM50 °FClear.7 mph76%30.19 "Hg10 mi
8:13 PM50 °FClear.8 mph76%30.19 "Hg10 mi
7:54 PM52 °FClear.7 mph72%30.19 "Hg10 mi
7:34 PM52 °FClear.6 mph72%30.19 "Hg10 mi
7:13 PM52 °FSunny.8 mph72%30.19 "Hg10 mi
6:54 PM52 °FSunny.8 mph72%30.20 "Hg10 mi
6:33 PM54 °FSunny.9 mph67%30.19 "Hg10 mi
6:14 PM54 °FSunny.10 mph67%30.19 "Hg10 mi
5:54 PM54 °FSunny.8 mph67%30.19 "Hg10 mi
5:33 PM55 °FSunny.8 mph59%30.19 "Hg10 mi
5:14 PM55 °FSunny.9 mph59%30.20 "Hg10 mi
4:14 PM55 °FScattered clouds.7 mph59%30.22 "Hg10 mi
3:53 PM55 °FSunny.9 mph59%30.22 "Hg10 mi
3:34 PM57 °FScattered clouds.7 mph55%30.22 "Hg10 mi
3:13 PM55 °FOvercast.5 mph55%30.23 "Hg10 mi
2:53 PM55 °FOvercast.10 mph55%30.24 "Hg10 mi
2:34 PM57 °FOvercast.9 mph59%30.24 "Hg10 mi
2:13 PM55 °FOvercast.No wind55%30.25 "Hg10 mi
1:53 PM55 °FPartly sunny.No wind55%30.26 "Hg10 mi
1:34 PM55 °FPartly sunny.5 mph55%30.26 "Hg10 mi
1:13 PM55 °FPartly sunny.7 mph55%30.27 "Hg10 mi
Weather by CustomWeather, © 2015

See weather overviewHow to use our weather pages